Simultaneous Nadir Overpasses (SNOs) Predictions

Prediction of SNOs between GOES-16 and NPP Satellite Orbit:

Table of predicted SNOs for the next 14.0 days since TLE Epoch: 2/12/2022
Index Date Time (GOES-16) GOES-16 Lat,Lon NPP Lat,Lon Distance(km) Time Diff (sec)
1 02/13/2022 18:26:49 0.06, -75.19 -0.07, -75.69 57.45 80
2 02/14/2022 18:10:44 0.06, -75.19 0.93, -71.16 459.11 80
3 02/16/2022 06:32:33 -0.06, -75.20 0.24, -76.43 141.38 80
4 02/17/2022 06:11:08 -0.06, -75.20 -0.77, -71.90 375.33 80
5 02/18/2022 18:33:05 0.05, -75.21 -0.38, -77.22 228.26 80
6 02/19/2022 18:17:01 0.05, -75.22 0.62, -72.68 288.97 80
7 02/21/2022 06:38:49 -0.05, -75.24 0.55, -77.96 310.14 80
8 02/22/2022 06:17:25 -0.05, -75.24 -0.46, -73.43 207.04 80
9 02/23/2022 18:39:21 0.05, -75.26 -0.74, -78.73 396.27 80
10 02/24/2022 18:23:17 0.04, -75.27 0.27, -74.20 121.19 80
